THORAD AGENA D DEB, 5153

Orbit data source: Space-Track

THORAD AGENA D DEB, 5153 is space debris in SSO originally from a launch on Wed, 08 Apr 1970 UTC launched from the Air Force Western Test Range (AFWTR). Debris objects in space refer to the collection of defunct objects orbiting the Earth. Examples of debris include non-operational satellites, rocket bodies, and fragments generated from explosions, collisions, or faulty payload assembly.

Loading next visibility...
Identifier
5153, 1970-025JW
Orbit
SSO
Country
Flag of USUS
Related business
Manufacturer
Unknown
Mission
Spacecraft
Bus & Motor
Unknown
Mass
Unknown
Launch date (UTC)
1970-04-08 (56 years ago)
Launch vehicle
Unknown
Launch site
Air Force Western Test Range (AFWTR)
Object type
Payload
Rocket body
Debris
Shape & HBR
Unknown shape, 0.1 m
Radar Cross Section
Medium (>0.1 m² and <1 m²)

Expand to show TLE details & history
Last TLE update: 3 days ago

TLE from 3 days ago
0 THORAD AGENA D DEB
1  5153U 70025JW  26171.29236602  .00000320  00000-0  50438-3 0  9993
2  5153  99.9780 286.3856 0032854 240.9254 145.9198 13.58133997769631
Epoch: 2026-06-20T07:01Z
TLE epoch observation values (Epoch: 2026-06-20T07:01:00.424Z)
Latitude
26.65017°
Longitude
-92.41453°
Altitude
1,065.836 km
Speed
7.311 km/s
True Right ascension
18h 45m 23s
True Declination
26° 31' 06"
Sunlit
Object was in full shadow at epoch
Visualization orbit readout
Latitude
Unknown
Longitude
Unknown
Altitude
Unknown
Speed
Unknown
Apparent Right ascension
Unknown
Apparent Declination
Unknown
Sunlit
N/A
Visualization observer readout
Local Sidereal Time
13:16:12
Azimuth
Unknown
Elevation
Unknown
Doppler factor
Unknown
Orbital elements
Apogee altitude
1,064.157 km
Perigee altitude
1,015.415 km
Semi-major axis
7,417.923 km
Eccentricity
0.00329
Inclination
99.978°
RAAN
286.3856°
Arg. of periapsis
240.9254°
True anomaly
146.13005°
Mean anomaly
145.9198°
Eccentric anomaly
146.02499°
Mean motion
3.39719 °/min
Orbital period
105.97 mins
BSTAR
0.00050438

Documentation

Showing up to 5 results
|